Regional Weather Roundup
Issued by NWS

Home | Current Version | Previous Version | Graphics & Text | Print | Product List | Glossary On
Versions: 1 2 3 4 5 6 7 8 9 10 11 12 13 14 15 16 17 18 19 20 21 22 23 24 25 26 27 28 29 30 31 32 33 34 35 36 37 38 39 40 41 42 43 44 45 46 47 48 49 50
000
ASUS45 KPSR 280900
RWRAZ

PRELIMINARY ARIZONA REGIONAL HOURLY WEATHER ROUNDUP
NATIONAL WEATHER SERVICE PHOENIX AZ
200 AM MST WED JAN 28 2015

NOTE: FAIR INDICATES FEW OR NO CLOUDS BELOW 12,000 FEET WITH NO
SIGNIFICANT WEATHER AND/OR OBSTRUCTIONS TO VISIBILITY.

AZZ001>003-036-281000-
NORTHWEST ARIZONA

CITY           SKY/WX    TMP DP  RH WIND       PRES   REMARKS
KINGMAN        CLEAR     40  38  93 S3        30.23F
$$

AZZ004>008-015-016-018-281000-
NORTH CENTRAL ARIZONA

CITY           SKY/WX    TMP DP  RH WIND       PRES   REMARKS
GRAND CANYON   CLEAR     25  23  92 CALM      30.30F
PRESCOTT       CLEAR     36  32  85 CALM      30.26F
FLAGSTAFF      NOT AVBL
PAYSON         CLEAR     41  39  93 CALM      30.29S
$$

AZZ009>014-017-281000-
NORTHEAST ARIZONA

CITY           SKY/WX    TMP DP  RH WIND       PRES   REMARKS
WINSLOW        NOT AVBL
SAINT JOHNS    CLOUDY    40  34  79 S5        30.29R
WINDOW ROCK    MOCLDY    37  32  82 CALM      30.31R
SHOW LOW       MOCLDY    34  32  93 S3        30.33S
$$

AZZ023-281000-
GREATER PHOENIX AREA

CITY           SKY/WX    TMP DP  RH WIND       PRES   REMARKS
PHOENIX        CLEAR     57  50  77 E6        30.13F
LUKE AFB       NOT AVBL
DEER VALLEY    CLEAR     57  49  74 N5        30.13F
SCOTTSDALE     CLEAR     54  49  83 CALM      30.15F
$$

AZZ027-028-281000-
SOUTHWEST MARICOPA COUNTY AND PINAL COUNTY

CITY           SKY/WX    TMP DP  RH WIND       PRES   REMARKS
CASA GRANDE    CLEAR     48  46  93 CALM      30.16F
GILA BEND      FAIR      55  52  91 S3        30.15R
$$

AZZ503-504-507>509-281000-
SOUTHEAST ARIZONA

CITY           SKY/WX    TMP DP  RH WIND       PRES   REMARKS
TUCSON         CLEAR     54  47  77 CALM      30.20F
DAVIS-MONTHAN  CLEAR     51  48  90 E3        30.18F
NOGALES        CLEAR     48  43  82 NE3       30.20F
SIERRA VISTA   PTCLDY    46  43  87 S5        30.23S
SAFFORD        MOCLDY    47  36  65 CALM      30.19S
$$

AZZ020-021-025-026-031-281000-
SOUTHWEST ARIZONA

CITY           SKY/WX    TMP DP  RH WIND       PRES   REMARKS
YUMA           NOT AVBL
$$

CAZ031-033-041-043-047-048-061-281000-
SOUTHERN CALIFORNIA

CITY           SKY/WX    TMP DP  RH WIND       PRES   REMARKS
DOWNTOWN L.A.  CLOUDY    59  48  67 N3        30.17
L.A. AIRPORT   CLOUDY    58  51  78 CALM      30.17R
SAN DIEGO      MOCLDY    57  49  74 CALM      30.18R
BURBANK        CLOUDY    55  45  68 CALM      30.17R
ONTARIO        PTCLDY    57  47  69 CALM      30.18S
RIVERSIDE      MOCLDY    54  49  83 NE5       30.19R
PALM SPRINGS   MOCLDY    55  50  83 N7        30.21S
EL CENTRO NAS  CLEAR     51  50  96 W8        30.18S
IMPERIAL       CLEAR     51  50  96 W8        30.18S
BLYTHE         CLEAR     55  53  93 W13       30.18R
$$

NVZ020-UTZ003-281000-
SOUTHERN NEVADA-UTAH

CITY           SKY/WX    TMP DP  RH WIND       PRES   REMARKS
LAS VEGAS      NOT AVBL
SALT LAKE CITY MOCLDY    48  34  58 S14       30.18R
$$

NMZ009-TXZ055-281000-
NEW MEXICO-WEST TEXAS

CITY           SKY/WX    TMP DP  RH WIND       PRES   REMARKS
ALBUQUERQUE    PTCLDY    41  30  65 W5        30.25R
EL PASO        PTCLDY    48  40  73 CALM      30.20R
$$


........................KEY........................
SKY/WX - SKY CONDITION/WEATHER
TMP    - TEMPERATURE IN FAHRENHEIT
DP     - DEW POINT IN FAHRENHEIT
RH     - RELATIVE HUMIDITY IN PERCENT
WIND   - DIRECTION AND SPEED IN MILES PER HOUR (MPH)
VRB    - VARIABLE WIND DIRECTION
PRES   - MEAN SEA LEVEL PRESSURE IN INCHES OF MERCURY
         F - FALLING PRESSURE   R - RISING PRESSURE
         S - STEADY PRESSURE
VSB    - VISIBILITY IN MILES
HX     - HEAT INDEX IN FAHRENHEIT
WCI    - WIND CHILL INDEX IN FAHRENHEIT
TC     - TEMPERATURE IN CELSIUS WHICH IS ALSO KNOWN AS
         TEMPERATURE IN CENTIGRADE
AFB    - AIR FORCE BASE
         LUKE AFB IS LUKE AIR FORCE BASE
         DAVIS-MONTHAN IS DAVIS-MONTHAN AIR FORCE BASE
NAS    - NAVAL AIR STATION
         EL CENTRO NAS IS EL CENTRO NAVAL AIR STATION
N/A    - NOT AVAILABLE


USA.gov is the U.S. government's official web portal to all federal, state and local government web resources and services.